Location: *
(51.0333°S, 178.4667°E)
Time: 18:07:32
(UTC+00:00)

STARLINK-63 - Pass Details

Date: 15 November 2019
Orbit: 529 x 530 km, 53.0° (Epoch: 08 December)

Event Time Altitude Azimuth Distance (km) Brightness Sun altitude
Rises 09:05:48 0° 271° (W) 2,678 7.7 -11.7°
Reaches altitude 10° 09:08:01 10° 267° (W) 1,790 6.8 -11.9°
Maximum altitude 09:12:04 66° 184° (S) 590 4.0 -12.3°
Drops below altitude 10° 09:16:08 10° 101° (E) 1,796 6.0 -12.7°
Enters shadow 09:18:02 - 98° (E) 2,552 6.7 -12.9°
